This is the latest recevied weather packets stored in our database for station/object OK2ARM-6. If no packets are shown the sender has not sent any weather packets the latest 10 day(s).
| Time | Temp. | Humidity | Pressure | Rain* | Wind** | Luminosity | Snow |
|---|---|---|---|---|---|---|---|
| 1777365205 | 14.44° C | 100% | 1021.6 hPa | - | - | - | - |
| 1777364605 | 13.89° C | 100% | 1021.6 hPa | - | - | - | - |
| 1777364005 | 13.89° C | 100% | 1021.6 hPa | - | - | - | - |
| 1777363406 | 13.33° C | 100% | 1021.5 hPa | - | - | - | - |
| 1777360717 | 11.67° C | 100% | 1021.3 hPa | - | - | - | - |
| 1777360117 | 11.11° C | 100% | 1021.3 hPa | - | - | - | - |
| 1777341086 | 0.56° C | 100% | 1021 hPa | - | - | - | - |
| 1777337486 | 0.56° C | 100% | 1021 hPa | - | - | - | - |
| 1777336886 | 1.11° C | 100% | 1021.1 hPa | - | - | - | - |
| 1777332086 | 2.22° C | 100% | 1021 hPa | - | - | - | - |
| 1777327286 | 4.44° C | 100% | 1021 hPa | - | - | - | - |
| 1777326686 | 4.44° C | 100% | 1021 hPa | - | - | - | - |
| 1777324886 | 5° C | 100% | 1020.8 hPa | - | - | - | - |
| 1777324286 | 5.56° C | 100% | 1020.8 hPa | - | - | - | - |
| 1777321142 | 7.22° C | 100% | 1020.8 hPa | - | - | - | - |
| 1777319943 | 8.33° C | 100% | 1020.8 hPa | - | - | - | - |
| 1777312025 | 13.33° C | 100% | 1020.2 hPa | - | - | - | - |
| 1777299137 | 20.56° C | 100% | 1021 hPa | - | - | - | - |
| 1777298537 | 21.11° C | 100% | 1021.1 hPa | - | - | - | - |
| 1777295392 | 21.67° C | 100% | 1021.5 hPa | - | - | - | - |
| 1777290593 | 22.78° C | 100% | 1022.1 hPa | - | - | - | - |
| 1777289392 | 18.89° C | 100% | 1022.3 hPa | - | - | - | - |
| 1777288793 | 18.89° C | 100% | 1022.4 hPa | - | - | - | - |
| 1777286248 | 18.33° C | 100% | 1022.7 hPa | - | - | - | - |
| 1777285048 | 16.11° C | 100% | 1023 hPa | - | - | - | - |
* Rain since midnight (hover to see other rain measurements)
** Current wind speed in m/s (hover to see current wind gust speed)